Flag for Germany Weather past 2 weeks in Radolfzell am Bodensee, Baden-Württemberg, Germany

Now
84 °F

Passing clouds.


Feels Like: 82 °F
Forecast: 56 / 80 °F
Wind: 2 mph from West

Location: Konstanz

Current Time: Aug 31, 2015 at 8:17:59 PM

Latest Report: Aug 31, 2015 at 8:00 PM


Visibility: 28 mi

Pressure: 29.86 "Hg

Humidity: 35%

Dew point: 53 °F

Location of Radolfzell am BodenseeLocation

Historic Weather in Radolfzell am Bodensee — Graph

°F

Radolfzell am Bodensee temperature yesterday

Maximum temperature yesterday: 90 °F (at 5:00 PM)
Minimum temperature yesterday: 67 °F (at 7:00 AM)
Average temperature yesterday: 78 °F

Past Weeks' High & Low Weather Summary

 TemperatureHumidityPressure
High92 °F (Aug 29, 5:00 PM)97% (Aug 21, 6:00 AM)30.27 "Hg (Aug 21, 6:00 AM)
Low53 °F (Aug 26, 7:00 AM)27% (Aug 31, 4:00 PM)29.70 "Hg (Aug 24, 8:00 AM)
Average68 °F69%30.01 "Hg
* Reported Aug 16 7:00 PM — Aug 31 7:00 PM, Radolfzell am Bodensee, Weather by CustomWeather, © 2015

Note: Actual official high and low records may vary slightly from our data, if they occured in-between our weather recording intervals... More about our weather records

Advertising

Radolfzell am Bodensee weather history for previous 24 hours

 ConditionsComfort  
Time TempWeatherWind HumidityBarometerVisibility
7:00 PM
Mon, Aug 31
87 °FPassing clouds.3 mph31%29.85 "Hg37 mi
6:00 PM89 °FPassing clouds.5 mph28%29.85 "Hg37 mi
5:00 PM90 °FPassing clouds.5 mph29%29.85 "Hg37 mi
4:00 PM90 °FPassing clouds.3 mph27%29.87 "Hg40 mi
3:00 PM89 °FPassing clouds.1 mph30%29.89 "Hg40 mi
2:00 PM86 °FPassing clouds.2 mph34%29.92 "Hg37 mi
1:00 PM84 °FPassing clouds.2 mph38%29.93 "Hg34 mi
12:00 PM82 °FPassing clouds.1 mph42%29.96 "Hg37 mi
11:00 AM78 °FPassing clouds.2 mph50%29.99 "Hg37 mi
10:00 AM74 °FPassing clouds.1 mph59%30.00 "Hg37 mi
9:00 AM70 °FPassing clouds.1 mph70%30.02 "Hg43 mi
8:00 AM66 °FSunny.2 mph83%30.03 "Hg43 mi
7:00 AM64 °FPassing clouds.1 mph90%30.03 "Hg31 mi
5:00 AM66 °FClear.2 mph85%30.02 "Hg19 mi
4:00 AM67 °FClear.2 mph82%30.01 "Hg22 mi
3:00 AM66 °FClear.1 mph80%30.00 "Hg28 mi
2:00 AM68 °FClear.2 mph81%30.01 "Hg25 mi
1:00 AM69 °FClear.1 mph80%30.03 "Hg25 mi
11:00 PM
Sun, Aug 30
73 °FClear.1 mph65%30.02 "Hg31 mi
10:00 PM76 °FClear.2 mph59%30.01 "Hg43 mi
9:00 PM78 °FClear.1 mph57%30.00 "Hg40 mi
8:00 PM85 °FSunny.1 mph43%29.97 "Hg34 mi
Weather by CustomWeather, © 2015

See weather overviewHow to use our weather pages